sat.trackr.live / text

‹ back to catalog

HISAKI (SPRINT-A)

NORAD 39253 · 2013-049A

PAYLOAD ACTIVE UNKNOWN

§ Identity

Operator
Country
JPN
Launch date
2013-09-14
Launch site
KSCUT
Launch vehicle
Mass (kg)
RCS (m²)
1.94

Purposes: science

External: N2YO · Heavens-Above · Gunter

§ Orbital elements

Epoch: 2026-05-24T20:32:09.809376Z

Period
106.23 min
Inclination
29.7217°
Eccentricity
0.0136782
Mean motion
13.55541613 rev/d
Perigee alt
950.3 km
Apogee alt
1,153.6 km
Semi-major
7,430.1 km
B*
9.7353e-5
RAAN
338.6285°
Arg perigee
187.8101°
Mean anomaly
172.0333°
Rev number
62,825

§ Raw data

HISAKI (SPRINT-A)1 39253U 13049A   26144.85566909  .00000139  00000+0  97353-4 0  99972 39253  29.7217 338.6285 0136782 187.8101 172.0333 13.55541613628256

JSON: /api/v1/satellites/39253 · /tle

For live sub-satellite position, see the globe view (requires WebGL).

§ Visibility from observer

Set your observer location to see the next 7 days of passes ≥ 10°. The values pass through the URL so the page stays shareable.

No JS? Fill the form by hand. The geolocation button needs JavaScript.